This demonstration page uses our WeatherBlox Daily Observations layout. Learn more.

Hourly Observations for August 4, 2019

Temp ( °F °C ) Dew Point ( °F °C ) Humidity (%) Winds ( mph kmh ) Pressure ( in mb ) Visibility ( mi km ) Precip ( " mm )
12:15 am 00:15 Clear 70 21.2 70 20.9 98 98 SE 6 9 30 1016 10 16.09344 0 0
12:35 am 00:35 Clear 70 21.1 69 20.8 98 98 SSE 5 7 30 1016 10 16.09344 0 0
12:55 am 00:55 Clear 70 21 69 20.7 98 98 SSE 3 6 30.03 1017 10 16.09344 0 0
1:15 am 01:15 Clear 69 20.8 69 20.5 98 98 SSE 5 7 30.03 1017 10 16.09344 0 0
1:35 am 01:35 Clear 69 20.5 69 20.3 99 99 SSE 3 6 30.06 1018 10 16.09344 0 0
1:55 am 01:55 Clear 69 20.3 68 20.1 99 99 Calm 30.06 1018 10 16.09344 0 0
2:15 am 02:15 Clear 68 20.1 68 20 99 99 Calm 30.06 1018 10 16.09344 0 0
2:35 am 02:35 Clear 68 20.1 68 20.1 100 100 S 3 6 30.06 1018 7 11.265408 0 0
2:55 am 02:55 Clear 67 19.5 67 19.5 100 100 S 3 6 30.03 1017 7 11.265408 0 0
3:15 am 03:15 Clear 67 19.6 67 19.6 100 100 S 3 6 30.03 1017 7 11.265408 0 0
3:35 am 03:35 Clear 67 19.5 67 19.5 100 100 S 3 6 30.03 1017 7 11.265408 0 0
3:55 am 03:55 Clear 67 19.5 67 19.5 100 100 S 3 6 30.03 1017 7 11.265408 0 0
4:15 am 04:15 Clear 67 19.3 67 19.3 100 100 S 3 6 30.03 1017 7 11.265408 0 0
4:35 am 04:35 Clear with Mist and Fog 67 19.3 67 19.3 100 100 Calm 30.03 1017 5 8.04672 0 0
4:55 am 04:55 Clear 67 19.5 67 19.5 100 100 S 3 6 30.03 1017 7 11.265408 0 0
5:15 am 05:15 Clear with Mist and Fog 67 19.6 67 19.6 100 100 SSW 5 7 30.03 1017 5 8.04672 0 0
5:35 am 05:35 Clear with Mist and Fog 67 19.7 67 19.7 100 100 S 5 7 30.03 1017 5 8.04672 0 0
5:55 am 05:55 Clear with Mist and Fog 67 19.6 67 19.6 100 100 S 5 7 30.03 1017 5 8.04672 0 0
6:15 am 06:15 Clear 67 19.3 67 19.3 100 100 SSE 3 6 30.03 1017 7 11.265408 0 0
6:35 am 06:35 Clear with Mist and Fog 66 18.7 66 18.7 100 100 S 5 7 30.03 1017 4 6.437376 0 0
6:55 am 06:55 Mostly Cloudy with Mist and Fog 65 18.6 65 18.6 100 100 SSE 3 6 30.03 1017 1.5 2.414016 0 0
7:15 am 07:15 Mostly Cloudy with Mist and Fog 65 18.6 65 18.6 100 100 S 3 6 30.03 1017 2.5 4.02336 0 0
7:35 am 07:35 Sunny with Mist and Fog 66 19.1 66 19.1 100 100 Calm 30.03 1017 5 8.04672 0 0
7:55 am 07:55 Sunny 68 20.2 68 20.2 100 100 S 3 6 30.03 1017 7 11.265408 0 0
8:15 am 08:15 Sunny 71 21.5 70 21.1 98 98 S 5 7 30 1016 10 16.09344 0 0
8:35 am 08:35 Sunny 73 22.6 71 21.8 95 95 SW 5 7 30 1016 10 16.09344 0 0
8:55 am 08:55 Sunny 74 23.5 72 22.1 92 92 SSW 5 7 30 1016 10 16.09344 0 0
9:15 am 09:15 Sunny 75 23.9 72 22.1 90 90 SW 6 9 30 1016 10 16.09344 0 0
9:35 am 09:35 Sunny 76 24.3 72 22.3 89 89 SW 6 9 29.97 1015 10 16.09344 0 0
9:55 am 09:55 Sunny 77 25 72 22.2 85 85 SW 5 7 29.97 1015 10 16.09344 0 0
10:15 am 10:15 Sunny 78 25.7 73 22.6 83 83 SW 3 6 29.97 1015 10 16.09344 0 0
10:35 am 10:35 Sunny 79 26.1 71 21.9 78 78 SSW 6 9 29.97 1015 10 16.09344 0 0
10:55 am 10:55 Sunny 81 27 73 22.5 76 76 S 6 9 29.97 1015 10 16.09344 0 0
11:15 am 11:15 Sunny 81 27.3 72 22 73 73 SSW 3 6 29.97 1015 10 16.09344 0 0
11:35 am 11:35 Sunny 82 27.8 71 21.6 69 69 S 7 11 29.94 1014 10 16.09344 0 0
11:55 am 11:55 Sunny 83 28.1 70 21.1 66 66 SSE 6 9 29.97 1015 10 16.09344 0 0
12:15 pm 12:15 Partly Cloudy 84 28.8 71 21.5 65 65 S 9 15 29.94 1014 10 16.09344 0 0
12:35 pm 12:35 Partly Cloudy 84 29.1 69 20.5 60 60 S 8 13 29.94 1014 10 16.09344 0 0
12:55 pm 12:55 Sunny 84 29.1 68 20.1 58 58 S 9 15 29.94 1014 10 16.09344 0 0
1:15 pm 13:15 Sunny 85 29.5 68 20.2 57 57 S 9 15 29.94 1014 10 16.09344 0 0
1:35 pm 13:35 Sunny 85 29.7 68 19.8 55 55 S 6 9 29.94 1014 10 16.09344 0 0
1:55 pm 13:55 Sunny 85 29.7 68 20.2 57 57 SSE 8 13 29.94 1014 10 16.09344 0 0
2:15 pm 14:15 Sunny 86 30.1 67 19.2 52 52 S 9 15 29.91 1013 10 16.09344 0 0
2:35 pm 14:35 Sunny 87 30.3 66 19.1 51 51 S 7 11 29.91 1013 10 16.09344 0 0
2:55 pm 14:55 Sunny 87 30.5 66 19.1 51 51 S 6 9 29.91 1013 10 16.09344 0 0
3:15 pm 15:15 Sunny 87 30.6 67 19.4 51 51 SSE 8 13 29.91 1013 10 16.09344 0 0
3:35 pm 15:35 Sunny 88 31 67 19.3 50 50 S 6 9 29.91 1013 10 16.09344 0 0
3:55 pm 15:55 Sunny 88 31 65 18.3 47 47 SSE 5 7 29.91 1013 10 16.09344 0 0
4:15 pm 16:15 Sunny 88 31 66 18.7 48 48 SE 3 6 29.91 1013 10 16.09344 0 0
4:35 pm 16:35 Sunny 88 31.1 67 19.5 50 50 ESE 9 15 29.85 1011 10 16.09344 0 0
4:55 pm 16:55 Sunny 88 31.2 67 19.5 50 50 SE 7 11 29.85 1011 10 16.09344 0 0
5:15 pm 17:15 Sunny 88 31 67 19.4 50 50 SE 8 13 29.85 1011 10 16.09344 0 0
5:35 pm 17:35 Sunny 88 31 67 19.7 51 51 SE 8 13 29.85 1011 10 16.09344 0 0
5:55 pm 17:55 Sunny 87 30.6 69 20.4 54 54 SE 9 15 29.83 1010 10 16.09344 0 0
6:15 pm 18:15 Sunny 87 30.5 68 20 53 53 SE 7 11 29.85 1011 10 16.09344 0 0
6:35 pm 18:35 Sunny 86 30.1 69 20.6 57 57 ESE 7 11 29.85 1011 10 16.09344 0 0
6:55 pm 18:55 Sunny 85 29.5 70 21 60 60 E 9 15 29.88 1012 10 16.09344 0 0
7:15 pm 19:15 Sunny 83 28.3 72 22.1 69 69 ESE 8 13 29.88 1012 10 16.09344 0 0
7:35 pm 19:35 Sunny 81 27.4 73 22.7 76 76 ESE 8 13 29.88 1012 10 16.09344 0 0
7:55 pm 19:55 Sunny 80 26.8 73 22.8 79 79 ESE 6 9 29.91 1013 10 16.09344 0 0
8:15 pm 20:15 Sunny 79 26 73 22.8 83 83 ESE 6 9 29.91 1013 10 16.09344 0 0
8:35 pm 20:35 Sunny 77 25.2 73 22.5 85 85 ESE 6 9 29.91 1013 10 16.09344 0 0
8:55 pm 20:55 Clear 76 24.5 72 22.4 88 88 ESE 6 9 29.91 1013 10 16.09344 0 0
9:15 pm 21:15 Clear 75 23.8 73 22.5 92 92 E 5 7 29.94 1014 10 16.09344 0 0
9:35 pm 21:35 Clear 74 23.6 72 22.4 93 93 E 7 11 29.97 1015 10 16.09344 0 0
9:55 pm 21:55 Clear 74 23.2 72 22.2 94 94 E 5 7 30 1016 10 16.09344 0 0
10:15 pm 22:15 Clear 74 23.2 72 22.3 95 95 ENE 7 11 30 1016 10 16.09344 0 0
10:35 pm 22:35 Clear 74 23.5 72 22 91 91 E 6 9 30 1016 10 16.09344 0 0
10:55 pm 22:55 Clear 74 23.3 72 22 92 92 E 5 7 30 1016 10 16.09344 0 0
11:15 pm 23:15 Clear 74 23.2 72 22 93 93 E 5 7 30 1016 10 16.09344 0 0
11:35 pm 23:35 Clear 74 23.1 71 21.9 93 93 ESE 5 7 30 1016 10 16.09344 0 0
11:55 pm 23:55 Clear 74 23.1 71 21.7 92 92 SSE 3 6 30 1016 10 16.09344 0 0

Powered by AerisWeather